Showing default

LARES, 38077

Orbit data source: Space-Track

LARES, 38077 is a payload satellite owned by ASI (IT) in LEO that was launched on Mon, 13 Feb 2012 UTC via a VEGA launch vehicle from the French Guiana (FRGUI). Payload-class satellites include a variety of spacecraft equipped with specific instruments for various scientific and technological missions. These include communications satellites like Starlink; space stations such as the ISS; scientific satellites like the Hubble; Earth observation satellites from companies like Planet Labs, Umbra, and HawkEye 360; GPS; miniature CubeSats for education and research; and military/defense satellites.

Loading next visibility...
Identifier
38077, 2012-006A
Orbit
LEO
Country
Flag of ITIT
Related business
Manufacturer
CGS
Mission
Operational Civil Technology
Bus & Motor
LARES, Unknown motor
Mass
400 kg wet, 400 kg dry
Launch date (UTC)
2012-02-13 (14 years ago)
Launch vehicle
VEGA
Launch site
French Guiana (FRGUI)
Object type
Payload
Rocket body
Debris
Shape & HBR
Sphere, 0.2 m
Radar Cross Section
0.126 m², Small (<0.1 m²)

Expand to show TLE details & history
Last TLE update: 7 hours ago

TLE from 7 hours ago
0 LARES
1 38077U 12006A   26038.45655796 -.00000044  00000-0 -35150-4 0  9998
2 38077  69.4903 153.8388 0008583 181.0019 179.0992 12.54932096640792
Epoch: 2026-02-07T10:57Z
TLE epoch observation values (Epoch: 2026-02-07T10:57:26.607Z)
Latitude
Longitude
-148.10188°
Altitude
1,452.768 km
Speed
7.133 km/s
True Right ascension
10h 15m 21s
True Declination
0° 00' 00"
Sunlit
Object was in full shadow at epoch
Visualization orbit readout
Latitude
Unknown
Longitude
Unknown
Altitude
Unknown
Speed
Unknown
Apparent Right ascension
Unknown
Apparent Declination
Unknown
Sunlit
N/A
Visualization observer readout
Local Sidereal Time
19:49:57
Azimuth
Unknown
Elevation
Unknown
Doppler factor
Unknown
Orbital elements
Apogee altitude
1,448.872 km
Perigee altitude
1,435.447 km
Semi-major axis
7,820.296 km
Eccentricity
0.00086
Inclination
69.4903°
RAAN
153.8388°
Arg. of periapsis
181.0019°
True anomaly
179.10074°
Mean anomaly
179.0992°
Eccentric anomaly
179.09997°
Mean motion
3.1384 °/min
Orbital period
114.71 mins
BSTAR
-0.00003515
Loading maneuver chart data...
Computing Atmospheric mass density...
Loading historical data...
Loading historical data...
Loading historical data...
Loading historical data...
Loading historical data...
Loading historical data...
Loading historical data...

Documentation

Showing up to 5 results
|